FALCON 9 DEB (45594 NORAD) Tracking and Keplerian Element Data

This shows tracking and keplerian element data for the satellite.

Feedback or suggestion? Click here.




ElementValue
Catalog45594
NameFALCON 9 DEB
Epoch Orbit478
Epoch Day143.48455723
Epoch Year2020
RAAN245.092
Inclination52.9983
Eccentricity0.0017495
Argument of Perigee157.3713
Mean Anonmoly202.8105
Mean Motion16.32255074
Decay Rate0.02076512
L11 45594U 20025BR 20143.48455723 .02076512 12117-4 33753-3 0 9997
L22 45594 52.9983 245.0920 0017495 157.3713 202.8105 16.32255074 4782

Live tracking and technical data element details for FALCON 9 DEB (NORAD 45594). FALCON 9 DEB can be tracked NOW for your location showing map with azimuth and elevation plus other details from your city location.

Track the satellite on the map from your city or location and see movement details for azimuth, elevation, latitude, longitude, range, height, and movement on the map or in text.







IsCatalogInMostPopularTable: catalog: 45594, numindb: 26
Update: records affected: 1



GetName: 45594 FALCON 9 DEB

Hit Count: updated at: Wed, 08 Jul 2020 04:21:34 GMT